| time (UTC) | temp C | wind direction | speed KPH | gust KPH | rain 1hr cm | rain 24hr cm | rain mn cm | humidity % | barometer mb |
| 20260504130429 | 21 | 39 | 6.4 | 4.8 | 0.00 | 0.00 | 0.00 | 64 | 1013.0 |
| 20260504110426 | 21 | 39 | 6.4 | 4.8 | 0.00 | 0.00 | 0.00 | 64 | 1013.0 |
| 20260504100424 | 21 | 39 | 6.4 | 4.8 | 0.00 | 0.00 | 0.00 | 64 | 1013.0 |
| 20260504081420 | 23 | 107 | 1.6 | 1.6 | 0.00 | 0.00 | 0.00 | 51 | 1013.0 |
| 20260504080420 | 23 | 107 | 1.6 | 1.6 | 0.00 | 0.00 | 0.00 | 51 | 1013.0 |
| 20260504050415 | 23 | 107 | 3.2 | 1.6 | 0.00 | 0.00 | 0.00 | 51 | 1014.0 |
| 20260504045414 | 25 | 227 | 1.6 | 4.8 | 0.00 | 0.00 | 0.00 | 50 | 1014.0 |
| 20260504044414 | 25 | 227 | 1.6 | 4.8 | 0.00 | 0.00 | 0.00 | 50 | 1014.0 |
| 20260504043414 | 25 | 227 | 1.6 | 4.8 | 0.00 | 0.00 | 0.00 | 50 | 1014.0 |
| 20260504042414 | 25 | 227 | 1.6 | 4.8 | 0.00 | 0.00 | 0.00 | 50 | 1014.0 |
| 20260504041413 | 25 | 227 | 1.6 | 4.8 | 0.00 | 0.00 | 0.00 | 50 | 1014.0 |
| 20260504040413 | 25 | 227 | 1.6 | 4.8 | 0.00 | 0.00 | 0.00 | 50 | 1014.0 |
| 20260504035412 | 25 | 227 | 1.6 | 4.8 | 0.00 | 0.00 | 0.00 | 50 | 1014.0 |
| 20260504034412 | 25 | 227 | 1.6 | 4.8 | 0.00 | 0.00 | 0.00 | 50 | 1014.0 |
| 20260504033412 | 25 | 227 | 1.6 | 4.8 | 0.00 | 0.00 | 0.00 | 50 | 1014.0 |
| 20260504032412 | 25 | 227 | 1.6 | 4.8 | 0.00 | 0.00 | 0.00 | 50 | 1014.0 |
| 20260504031411 | 25 | 227 | 1.6 | 4.8 | 0.00 | 0.00 | 0.00 | 50 | 1014.0 |
| 20260504030412 | 25 | 227 | 1.6 | 4.8 | 0.00 | 0.00 | 0.00 | 50 | 1014.0 |
| 20260504025411 | 25 | 227 | 1.6 | 4.8 | 0.00 | 0.00 | 0.00 | 50 | 1014.0 |
| 20260504024411 | 25 | 227 | 1.6 | 4.8 | 0.00 | 0.00 | 0.00 | 50 | 1014.0 |
| 20260504023410 | 25 | 227 | 1.6 | 4.8 | 0.00 | 0.00 | 0.00 | 50 | 1014.0 |
| 20260504022410 | 25 | 227 | 1.6 | 4.8 | 0.05 | 0.00 | 0.00 | 50 | 1013.0 |
| 20260504021409 | 25 | 227 | 1.6 | 4.8 | 0.05 | 0.00 | 0.00 | 50 | 1013.0 |
| 20260504020409 | 25 | 227 | 1.6 | 4.8 | 0.05 | 0.00 | 0.00 | 50 | 1013.0 |
| 20260504015409 | 25 | 227 | 1.6 | 4.8 | 0.23 | 0.00 | 0.00 | 50 | 1013.0 |
| 20260504014409 | 25 | 227 | 3.2 | 4.8 | 0.28 | 0.00 | 0.00 | 50 | 1012.0 |
| 20260504013408 | 28 | 222 | 6.4 | 8.0 | 0.28 | 0.00 | 0.00 | 37 | 1012.0 |
| 20260504012408 | 28 | 222 | 6.4 | 8.0 | 0.33 | 0.00 | 0.00 | 37 | 1011.0 |
| 20260504011408 | 28 | 222 | 6.4 | 8.0 | 0.30 | 0.00 | 0.00 | 37 | 1011.0 |
| 20260504010407 | 28 | 222 | 6.4 | 8.0 | 0.28 | 0.00 | 0.00 | 37 | 1011.0 |
| 20260504005407 | 28 | 222 | 6.4 | 8.0 | 0.03 | 0.00 | 0.00 | 37 | 1011.0 |
| 20260504004407 | 28 | 222 | 6.4 | 8.0 | 0.03 | 0.00 | 0.00 | 37 | 1011.0 |
| 20260504003406 | 28 | 222 | 6.4 | 8.0 | 0.05 | 0.00 | 0.00 | 37 | 1011.0 |
| 20260504002406 | 28 | 222 | 6.4 | 8.0 | 0.00 | 0.00 | 0.00 | 37 | 1010.0 |
| 20260504001406 | 28 | 222 | 6.4 | 8.0 | 0.00 | 0.00 | 0.00 | 37 | 1010.0 |
| 20260504000406 | 28 | 222 | 6.4 | 8.0 | 0.00 | 0.00 | 0.00 | 37 | 1010.0 |
| 20260503235405 | 28 | 222 | 6.4 | 8.0 | 0.00 | 0.00 | 0.00 | 37 | 1010.0 |
| 20260503234405 | 28 | 222 | 6.4 | 8.0 | 0.00 | 0.00 | 0.00 | 37 | 1010.0 |
| 20260503233405 | 28 | 222 | 6.4 | 8.0 | 0.00 | 0.00 | 0.00 | 37 | 1010.0 |
| 20260503232404 | 28 | 222 | 6.4 | 8.0 | 0.00 | 0.00 | 0.00 | 37 | 1009.0 |
| 20260503231404 | 28 | 222 | 6.4 | 8.0 | 0.00 | 0.00 | 0.00 | 37 | 1009.0 |
| 20260503230404 | 28 | 222 | 6.4 | 8.0 | 0.00 | 0.00 | 0.00 | 37 | 1009.0 |
| 20260503225403 | 28 | 222 | 6.4 | 8.0 | 0.00 | 0.00 | 0.00 | 37 | 1009.0 |
| 20260503224403 | 28 | 222 | 6.4 | 8.0 | 0.00 | 0.00 | 0.00 | 37 | 1009.0 |
| 20260503223403 | 28 | 222 | 6.4 | 8.0 | 0.00 | 0.00 | 0.00 | 37 | 1009.0 |
| 20260503222402 | 28 | 222 | 6.4 | 8.0 | 0.00 | 0.00 | 0.00 | 37 | 1009.0 |
| 20260503221402 | 28 | 222 | 6.4 | 8.0 | 0.00 | 0.00 | 0.00 | 37 | 1009.0 |
| 20260503220402 | 28 | 222 | 6.4 | 8.0 | 0.00 | 0.00 | 0.00 | 37 | 1009.0 |
| 20260503215401 | 28 | 222 | 6.4 | 8.0 | 0.00 | 0.00 | 0.00 | 37 | 1009.0 |
| 20260503214401 | 28 | 222 | 6.4 | 8.0 | 0.00 | 0.00 | 0.00 | 37 | 1009.0 |
| 20260503213401 | 28 | 222 | 6.4 | 8.0 | 0.00 | 0.00 | 0.00 | 37 | 1009.0 |
| 20260503212400 | 28 | 222 | 6.4 | 8.0 | 0.00 | 0.00 | 0.00 | 37 | 1009.0 |
| 20260503211400 | 28 | 222 | 6.4 | 8.0 | 0.00 | 0.00 | 0.00 | 37 | 1009.0 |
| 20260503210400 | 28 | 222 | 6.4 | 8.0 | 0.00 | 0.00 | 0.00 | 37 | 1009.0 |
| 20260503205400 | 28 | 222 | 6.4 | 8.0 | 0.00 | 0.00 | 0.00 | 37 | 1009.0 |
| 20260503204359 | 28 | 222 | 6.4 | 8.0 | 0.00 | 0.00 | 0.00 | 37 | 1009.0 |
| 20260503203359 | 28 | 222 | 6.4 | 8.0 | 0.00 | 0.00 | 0.00 | 37 | 1009.0 |
| 20260503202359 | 29 | 222 | 6.4 | 8.0 | 0.00 | 0.00 | 0.00 | 37 | 1010.0 |
| 20260503201359 | 28 | 222 | 6.4 | 8.0 | 0.00 | 0.00 | 0.00 | 38 | 1010.0 |
| 20260503200358 | 29 | 222 | 6.4 | 8.0 | 0.00 | 0.00 | 0.00 | 38 | 1010.0 |
| 20260503195358 | 28 | 222 | 6.4 | 8.0 | 0.00 | 0.00 | 0.00 | 39 | 1010.0 |
| 20260503194358 | 28 | 222 | 6.4 | 8.0 | 0.00 | 0.00 | 0.00 | 39 | 1010.0 |
| 20260503193358 | 28 | 222 | 6.4 | 8.0 | 0.00 | 0.00 | 0.00 | 39 | 1010.0 |
| 20260503192357 | 28 | 232 | 3.2 | 8.0 | 0.00 | 0.00 | 0.00 | 38 | 1011.0 |
| 20260503191357 | 28 | 232 | 3.2 | 8.0 | 0.00 | 0.00 | 0.00 | 39 | 1011.0 |
| 20260503190356 | 28 | 232 | 3.2 | 8.0 | 0.00 | 0.00 | 0.00 | 39 | 1011.0 |
| 20260503185356 | 28 | 232 | 3.2 | 8.0 | 0.00 | 0.00 | 0.00 | 39 | 1011.0 |
| 20260503184356 | 28 | 232 | 3.2 | 8.0 | 0.00 | 0.00 | 0.00 | 40 | 1011.0 |
| 20260503183355 | 28 | 232 | 3.2 | 8.0 | 0.00 | 0.00 | 0.00 | 40 | 1011.0 |
| 20260503182355 | 28 | 231 | 1.6 | 12.9 | 0.00 | 0.00 | 0.00 | 40 | 1012.0 |
| 20260503181355 | 28 | 231 | 1.6 | 12.9 | 0.00 | 0.00 | 0.00 | 40 | 1012.0 |
| 20260503180354 | 28 | 231 | 1.6 | 12.9 | 0.00 | 0.00 | 0.00 | 40 | 1012.0 |
| 20260503175354 | 28 | 231 | 1.6 | 12.9 | 0.00 | 0.00 | 0.00 | 40 | 1012.0 |
| 20260503174354 | 28 | 231 | 1.6 | 12.9 | 0.00 | 0.00 | 0.00 | 41 | 1012.0 |
| 20260503173353 | 28 | 231 | 1.6 | 12.9 | 0.00 | 0.00 | 0.00 | 41 | 1012.0 |
| 20260503172353 | 27 | 268 | 0.0 | 16.1 | 0.00 | 0.00 | 0.00 | 43 | 1013.0 |
| 20260503171353 | 27 | 268 | 0.0 | 16.1 | 0.00 | 0.00 | 0.00 | 43 | 1013.0 |
| 20260503170352 | 27 | 268 | 0.0 | 16.1 | 0.00 | 0.00 | 0.00 | 43 | 1013.0 |
| 20260503150348 | 25 | 327 | 3.2 | 11.3 | 0.00 | 0.00 | 0.00 | 64 | 1014.0 |